Regional Weather Roundup
Issued by NWS

Home | Current Version | Previous Version | Graphics & Text | Print | Product List | Glossary On
Versions: 1 2 3 4 5 6 7 8 9 10 11 12 13 14 15 16 17 18 19 20 21 22 23 24 25 26 27 28 29 30 31 32 33 34 35 36 37 38 39 40 41 42 43 44 45 46 47 48 49 50
000
ASUS43 KLSX 191757
RWRMO

WEATHER SUMMARY FOR MISSOURI
NATIONAL WEATHER SERVICE SPRINGFIELD MO
1200 PM CST FRI JAN 19 2018

NOTE: "FAIR" INDICATES FEW OR NO CLOUDS BELOW 12,000 FEET WITH NO
       SIGNIFICANT WEATHER AND/OR OBSTRUCTIONS TO VISIBILITY.
       CURRENT SKY AND/OR WEATHER CONDITIONS ARE NOT AVAILABLE FOR
       CHILLICOTHE AND FARMINGTON.

MOZ001>031-035>038-043-044-053-054-191900-
...NORTHERN AND WESTERN MISSOURI...

CITY           SKY/WX    TMP DP  RH WIND       PRES   REMARKS
KANSAS CTY INT CLOUDY    43  23  45 SW17      29.89F
6HR MIN TEMP:  30; 6HR MAX TEMP:  43;

KANSAS C DTWN  CLOUDY    45  22  40 S15       29.91F
6HR MIN TEMP:  32; 6HR MAX TEMP:  45;

LEE`S SUMMIT   CLOUDY    43  23  45 SW18      29.92F
6HR MIN TEMP:  30; 6HR MAX TEMP:  44;

ST JOSEPH      CLOUDY    42  26  53 S17       29.86F
6HR MIN TEMP:  30; 6HR MAX TEMP:  42;

CHILLICOTHE      N/A     42  22  44 S16       29.89F
6HR MIN TEMP:  29; 6HR MAX TEMP:  42;


$$
MOZ066>068-077>081-088>096-101>105-191900-
...SOUTHWEST MISSOURI...

CITY           SKY/WX    TMP DP  RH WIND       PRES   REMARKS
SPRINGFIELD    SUNNY     47  24  40 SW17      30.03F
6HR MIN TEMP:  26; 6HR MAX TEMP:  47;

JOPLIN         CLOUDY    45  26  47 S14       30.02F
6HR MIN TEMP:  30; 6HR MAX TEMP:  45;

BRANSON        MOSUNNY   48  25  40 SW9       30.08F

$$
MOZ032>034-039>042-045>050-055>058-069>072-191900-
...CENTRAL MISSOURI...

CITY           SKY/WX    TMP DP  RH WIND       PRES   REMARKS
COLUMBIA       CLOUDY    48  21  34 S20       29.98F
6HR MIN TEMP:  30; 6HR MAX TEMP:  48;

JEFFERSON CITY CLOUDY    49  22  34 S9G18     30.00F
6HR MIN TEMP:  29; 6HR MAX TEMP:  49; 6HR PCP: TRACE;

ROLLA          SUNNY     48  21  34 SW14G23   30.03F
6HR MIN TEMP:  28; 6HR MAX TEMP:  48;

SEDALIA        CLOUDY    47  26  44 S21G28    29.97F
6HR MIN TEMP:  32; 6HR MAX TEMP:  47;

WARRENSBURG    CLOUDY    43  25  49 S14G23    29.96F

$$
MOZ051-052-059>065-191900-
...EAST CENTRAL MISSOURI...

CITY           SKY/WX    TMP DP  RH WIND       PRES   REMARKS
ST LOUIS INTL  PTSUNNY   50  18  28 SW17      30.02F
6HR MIN TEMP:  25; 6HR MAX TEMP:  50;

SPIRIT OF STL  SUNNY     51  19  28 SW12      30.01F
6HR MIN TEMP:  33; 6HR MAX TEMP:  51;

ST CHARLES     CLOUDY    49  20  31 SW17      30.01F
6HR MIN TEMP:  18; 6HR MAX TEMP:  49;


$$
MOZ072>076-082>087-097>100-106>115-191900-
...SOUTH CENTRAL AND SOUTHEAST MISSOURI...

CITY           SKY/WX    TMP DP  RH WIND       PRES   REMARKS
CAPE GIRARDEAU FAIR      33  21  61 S10       30.18F WCI  25
6HR MIN TEMP:  17; 6HR MAX TEMP:  33;

POPLAR BLUFF   FAIR      38  24  57 SW12      30.18F
6HR MIN TEMP:  20; 6HR MAX TEMP:  38;

WEST PLAINS    SUNNY     45  21  38 S12       30.11F
6HR MIN TEMP:  26; 6HR MAX TEMP:  46;


$$



USA.gov is the U.S. government's official web portal to all federal, state and local government web resources and services.